This demonstration page uses our WeatherBlox Daily Observations layout. Learn more.

Left ArrowRight Arrow

39.51506, -84.39828

Hourly Observations for January 10, 2015

Temp ( °F °C ) Dew Point ( °F °C ) Humidity (%) Winds ( mph kmh ) Pressure ( in mb ) Visibility ( mi km ) Precip ( " mm )
12:15 am 00:15 Clear 9 -12.6 -3 -19.5 57 57 W 3 6 30.62 1037 10 16 0.00 0.00
12:35 am 00:35 Clear 8 -13.4 -4 -20.2 57 57 W 6 9 30.62 1037 10 16 0.00 0.00
12:55 am 00:55 Clear 7 -14 -5 -20.6 58 58 W 5 7 30.62 1037 10 16 0.00 0.00
1:15 am 01:15 Clear 7 -14 -5 -20.6 58 58 W 3 6 30.62 1037 10 16 0.00 0.00
1:35 am 01:35 Clear N/A N/A N/A W 5 7 N/A 10 16 0.00 0.00
1:55 am 01:55 Clear N/A N/A N/A Calm N/A 10 16 0.00 0.00
2:15 am 02:15 Clear N/A N/A N/A WSW 3 6 N/A 10 16 0.00 0.00
2:35 am 02:35 Clear N/A N/A N/A undefined N/A N/A 10 16 0.00 0.00
2:55 am 02:55 Clear N/A N/A N/A Calm N/A N/A 0.00 0.00
3:15 am 03:15 Clear 2 -16.8 -4 -19.8 78 78 Calm 30.65 1038 10 16 0.00 0.00
3:35 am 03:35 Clear N/A N/A N/A undefined N/A N/A 10 16 0.00 0.00
3:55 am 03:55 Clear 1 -17.3 -4 -20.2 78 78 undefined N/A 30.65 1038 10 16 0.00 0.00
4:15 am 04:15 Clear N/A N/A N/A undefined N/A N/A 10 16 0.00 0.00
4:35 am 04:35 Clear N/A N/A N/A undefined N/A N/A 10 16 0.00 0.00
4:55 am 04:55 Clear N/A N/A N/A undefined N/A N/A 10 16 0.00 0.00
5:15 am 05:15 Clear N/A N/A N/A undefined N/A N/A 10 16 0.00 0.00
5:35 am 05:35 Clear N/A N/A N/A undefined N/A N/A 10 16 0.00 0.00
5:55 am 05:55 Clear N/A N/A N/A undefined N/A N/A 10 16 0.00 0.00
6:15 am 06:15 Clear N/A N/A N/A undefined N/A N/A 7 11 0.00 0.00
6:35 am 06:35 Hazy N/A N/A N/A undefined N/A N/A 5 8 0.00 0.00
6:55 am 06:55 Clear N/A N/A N/A undefined N/A N/A 10 16 0.00 0.00
7:15 am 07:15 Clear -1 -18.2 -6 -21.3 77 77 Calm 30.65 1038 10 16 0.00 0.00
7:35 am 07:35 Clear N/A N/A N/A Calm N/A 10 16 0.00 0.00
7:55 am 07:55 Clear N/A N/A N/A Calm N/A 10 16 0.00 0.00
8:15 am 08:15 undefined N/A N/A N/A Calm N/A N/A 0.00 0.00
8:35 am 08:35 Sunny -1 -18.2 -7 -21.4 76 76 Calm 30.68 1039 7 11 0.00 0.00
8:55 am 08:55 Sunny 1 -17.1 -4 -20.2 77 77 Calm 30.68 1039 7 11 0.00 0.00
9:15 am 09:15 Sunny 4 -15.5 -1 -18.4 79 79 SW 3 6 30.68 1039 10 16 0.00 0.00
9:35 am 09:35 Sunny N/A N/A N/A undefined N/A N/A N/A 0.00 0.00
9:55 am 09:55 Sunny 9 -12.6 4 -15.5 79 79 WSW 8 13 30.71 1040 10 16 0.00 0.00
10:15 am 10:15 Sunny 9 -12.6 4 -15.6 79 79 undefined N/A 30.68 1039 10 16 0.00 0.00
10:35 am 10:35 Sunny 10 -12.5 3 -16 75 75 SW 6 9 30.65 1038 10 16 0.00 0.00
10:55 am 10:55 Sunny 12 -11.2 4 -15.8 69 69 SSW 10 17 30.68 1039 10 16 0.00 0.00
11:15 am 11:15 Sunny 12 -10.9 1 -17.5 59 59 SSW 10 17 30.65 1038 10 16 0.00 0.00
11:35 am 11:35 Sunny 14 -9.8 -1 -18.2 51 51 SSW 9 15 30.65 1038 10 16 0.00 0.00
11:55 am 11:55 Sunny 14 -9.8 -2 -18.7 49 49 S 7 11 30.65 1038 10 16 0.00 0.00
12:15 pm 12:15 Sunny 14 -9.8 -3 -19.3 46 46 SSW 6 9 30.62 1037 10 16 0.00 0.00
12:35 pm 12:35 Sunny 17 -8.5 -1 -18.3 45 45 WSW 7 11 30.62 1037 10 16 0.00 0.00
12:55 pm 12:55 Sunny 17 -8.5 -2 -18.8 44 44 SW 9 15 30.59 1036 10 16 0.00 0.00
1:15 pm 13:15 Sunny 18 -7.9 -2 -18.9 41 41 SW 9 15 30.59 1036 10 16 0.00 0.00
1:35 pm 13:35 Sunny 19 -7 -2 -18.8 39 39 SW 9 15 30.59 1036 10 16 0.00 0.00
1:55 pm 13:55 Sunny 20 -6.6 -2 -19.1 37 37 WSW 8 13 30.59 1036 10 16 0.00 0.00
2:15 pm 14:15 Sunny 21 -6.3 -3 -19.2 36 36 SW 9 15 30.56 1035 10 16 0.00 0.00
2:35 pm 14:35 Sunny 22 -5.8 -2 -18.9 35 35 SW 9 15 30.56 1035 10 16 0.00 0.00
2:55 pm 14:55 Sunny 22 -5.6 -3 -19.3 33 33 WSW 10 17 30.56 1035 10 16 0.00 0.00
3:15 pm 15:15 Sunny 22 -5.3 -3 -19.5 32 32 SW 9 15 30.56 1035 10 16 0.00 0.00
3:35 pm 15:35 Sunny 23 -5 -2 -19 33 33 WSW 8 13 30.56 1035 10 16 0.00 0.00
3:55 pm 15:55 Sunny 23 -4.9 -2 -18.9 33 33 SW 8 13 30.56 1035 10 16 0.00 0.00
4:15 pm 16:15 Sunny 23 -5 0 -17.9 36 36 SW 7 11 30.56 1035 10 16 0.00 0.00
4:35 pm 16:35 Sunny 23 -5.2 0 -17.8 37 37 SW 6 9 30.53 1034 10 16 0.00 0.00
4:55 pm 16:55 Sunny 23 -5.2 -1 -18.6 34 34 SW 5 7 30.53 1034 10 16 0.00 0.00
5:15 pm 17:15 Sunny 22 -5.6 -1 -18.1 37 37 WSW 8 13 30.56 1035 10 16 0.00 0.00
5:35 pm 17:35 Clear 22 -5.7 0 -17.9 38 38 SSW 3 6 30.53 1034 10 16 0.00 0.00
5:55 pm 17:55 Clear 21 -5.9 0 -17.9 38 38 Calm 30.53 1034 10 16 0.00 0.00
6:15 pm 18:15 Clear 19 -7 5 -15 53 53 Calm 30.53 1034 10 16 0.00 0.00
6:35 pm 18:35 Clear 17 -8.2 5 -15 58 58 Calm 30.56 1035 10 16 0.00 0.00
6:55 pm 18:55 Clear 19 -7.5 5 -15.1 55 55 SW 3 6 30.56 1035 10 16 0.00 0.00
7:15 pm 19:15 Clear 14 -9.8 4 -15.3 65 65 Calm 30.53 1034 10 16 0.00 0.00
7:35 pm 19:35 Clear 16 -9.1 6 -14.3 66 66 Calm 30.56 1035 10 16 0.00 0.00
7:55 pm 19:55 Clear 15 -9.2 6 -14.7 65 65 Calm 30.56 1035 10 16 0.00 0.00
8:15 pm 20:15 Clear 17 -8.5 7 -13.9 65 65 Calm 30.56 1035 10 16 0.00 0.00
8:35 pm 20:35 Clear 16 -9.1 6 -14.2 67 67 Calm 30.56 1035 10 16 0.00 0.00
8:55 pm 20:55 Clear 17 -8.5 7 -14 65 65 Calm 30.53 1034 10 16 0.00 0.00
9:15 pm 21:15 Clear 17 -8.5 7 -14 65 65 Calm 30.53 1034 10 16 0.00 0.00
9:35 pm 21:35 Clear 23 -5.1 3 -16.3 41 41 SSW 8 13 30.53 1034 10 16 0.00 0.00
9:55 pm 21:55 Clear 21 -6.1 6 -14.7 51 51 SSW 5 7 30.53 1034 10 16 0.00 0.00
10:15 pm 22:15 Clear 21 -6.3 5 -14.9 51 51 Calm 30.53 1034 10 16 0.00 0.00
10:35 pm 22:35 Partly Cloudy 20 -6.5 5 -15.1 51 51 SW 3 6 30.53 1034 10 16 0.00 0.00
10:55 pm 22:55 Cloudy 20 -6.6 7 -14.1 56 56 SW 5 7 30.53 1034 10 16 0.00 0.00
11:15 pm 23:15 Cloudy 22 -5.6 9 -13 56 56 SSW 6 9 30.50 1033 10 16 0.00 0.00
11:35 pm 23:35 Cloudy 24 -4.2 6 -14.2 46 46 S 9 15 30.50 1033 10 16 0.00 0.00
11:55 pm 23:55 Partly Cloudy 24 -4.2 5 -14.9 43 43 Calm 30.50 1033 10 16 0.00 0.00

Powered by AerisWeather